Tracking 30922 objects as of 2-Jul-2025
HD Live streaming from Space Station
objects crossing your sky now

STARLINK-30221

Track STARLINK-30221 now!
10-day predictions
STARLINK-30221 is classified as:


NORAD ID: 57418
Int'l Code: 2023-102Q
Perigee: 565.1 km
Apogee: 567.3 km
Inclination: 43.0 °
Period: 95.8 minutes
Semi major axis: 6937 km
RCS: Unknown
Launch date: July 20, 2023
Source: United States (US)
Launch site: AIR FORCE WESTERN TEST RANGE (AFWTR)
Your satellite tracking list
Your tracking list is empty




NASA's NSSDC Master Catalog

Two Line Element Set (TLE):
1 57418U 23102Q   25182.69326726  .00000297  00000-0  37031-4 0  9998
2 57418  43.0020 172.4072 0001599 294.3071  65.7604 15.02539404108481
Source of the keplerian elements: AFSPC